Time,TemperatureF,DewpointF,PressureIn,WindDirection,WindDirectionDegrees,WindSpeedMPH,WindSpeedGustMPH,Humidity,HourlyPrecipIn,Conditions,Clouds,dailyrainin,SoftwareType,DateUTC
2013-01-07 00:01:00,38.3,31.1,30.32,NE,34,0.0,0.0,75,0.00,CLR,,0.00,WeatherDisplay:10.37,2013-01-07 06:01:00,
2013-01-07 00:06:00,38.3,31.4,30.32,NE,34,3.5,3.5,76,0.00,CLR,,0.00,WeatherDisplay:10.37,2013-01-07 06:06:00,
2013-01-07 00:11:00,38.2,31.3,30.32,NNE,28,4.6,4.6,76,0.00,CLR,,0.00,WeatherDisplay:10.37,2013-01-07 06:11:00,
2013-01-07 00:16:00,38.2,31.3,30.31,NNE,24,4.6,4.6,76,0.00,CLR,,0.00,WeatherDisplay:10.37,2013-01-07 06:16:00,
2013-01-07 00:21:00,38.1,31.2,30.31,NNE,22,3.5,3.5,76,0.00,CLR,,0.00,WeatherDisplay:10.37,2013-01-07 06:21:00,
2013-01-07 00:26:00,38.0,31.1,30.31,NNE,22,3.5,3.5,76,0.00,CLR,,0.00,WeatherDisplay:10.37,2013-01-07 06:26:00,
2013-01-07 00:31:00,37.9,31.0,30.31,NNE,21,3.5,3.5,76,0.00,CLR,,0.00,WeatherDisplay:10.37,2013-01-07 06:31:00,
2013-01-07 00:36:00,37.7,30.8,30.31,NNE,21,3.5,3.5,76,0.00,CLR,,0.00,WeatherDisplay:10.37,2013-01-07 06:36:00,
2013-01-07 00:41:00,37.6,30.7,30.31,NNE,21,3.5,3.5,76,0.00,CLR,,0.00,WeatherDisplay:10.37,2013-01-07 06:41:00,
2013-01-07 00:46:00,37.4,30.5,30.31,NNE,21,3.5,3.5,76,0.00,CLR,,0.00,WeatherDisplay:10.37,2013-01-07 06:46:00,
2013-01-07 00:51:00,37.3,30.4,30.31,NNE,20,3.5,3.5,76,0.00,CLR,,0.00,WeatherDisplay:10.37,2013-01-07 06:51:00,
2013-01-07 00:56:00,37.1,30.6,30.31,NNE,20,3.5,3.5,77,0.00,CLR,,0.00,WeatherDisplay:10.37,2013-01-07 06:56:00,
2013-01-07 01:01:00,36.9,30.4,30.31,NNE,19,3.5,3.5,77,0.00,CLR,,0.00,WeatherDisplay:10.37,2013-01-07 07:01:00,
2013-01-07 01:06:00,36.7,30.2,30.30,NNE,19,4.6,4.6,77,0.00,CLR,,0.00,WeatherDisplay:10.37,2013-01-07 07:06:00,
2013-01-07 01:11:00,36.4,29.9,30.30,NNE,18,3.5,3.5,77,0.00,CLR,,0.00,WeatherDisplay:10.37,2013-01-07 07:11:00,
2013-01-07 01:16:00,36.1,29.9,30.29,NNE,17,3.5,3.5,78,0.00,CLR,,0.00,WeatherDisplay:10.37,2013-01-07 07:16:00,
2013-01-07 01:21:00,35.9,29.7,30.29,NNE,17,3.5,3.5,78,0.00,CLR,,0.00,WeatherDisplay:10.37,2013-01-07 07:21:00,
2013-01-07 01:26:00,35.8,29.6,30.29,NNE,17,3.5,3.5,78,0.00,CLR,,0.00,WeatherDisplay:10.37,2013-01-07 07:26:00,
2013-01-07 01:31:00,35.7,29.5,30.29,NNE,17,3.5,3.5,78,0.00,CLR,,0.00,WeatherDisplay:10.37,2013-01-07 07:31:00,
2013-01-07 01:36:00,35.6,29.4,30.29,NNE,17,0.0,0.0,78,0.00,CLR,,0.00,WeatherDisplay:10.37,2013-01-07 07:36:00,
2013-01-07 01:41:00,35.5,29.6,30.29,NNE,17,0.0,0.0,79,0.00,CLR,,0.00,WeatherDisplay:10.37,2013-01-07 07:41:00,
2013-01-07 01:46:00,35.5,29.6,30.29,NNE,17,0.0,0.0,79,0.00,CLR,,0.00,WeatherDisplay:10.37,2013-01-07 07:46:00,
2013-01-07 01:51:00,35.5,29.6,30.29,NNE,17,0.0,0.0,79,0.00,CLR,,0.00,WeatherDisplay:10.37,2013-01-07 07:51:00,
2013-01-07 01:56:00,35.5,29.6,30.29,NNE,17,0.0,0.0,79,0.00,CLR,,0.00,WeatherDisplay:10.37,2013-01-07 07:56:00,
2013-01-07 02:01:00,35.4,29.5,30.28,NNE,17,0.0,0.0,79,0.00,CLR,,0.00,WeatherDisplay:10.37,2013-01-07 08:01:00,
2013-01-07 02:06:00,35.4,29.5,30.29,NNE,17,0.0,0.0,79,0.00,CLR,,0.00,WeatherDisplay:10.37,2013-01-07 08:06:00,
2013-01-07 02:11:00,35.4,29.5,30.29,NNE,17,0.0,0.0,79,0.00,CLR,,0.00,WeatherDisplay:10.37,2013-01-07 08:11:00,
2013-01-07 02:16:00,35.3,29.4,30.29,NNE,17,3.5,3.5,79,0.00,CLR,,0.00,WeatherDisplay:10.37,2013-01-07 08:16:00,
2013-01-07 02:21:00,35.2,29.0,30.29,NNE,17,2.3,2.3,78,0.00,CLR,,0.00,WeatherDisplay:10.37,2013-01-07 08:21:00,
2013-01-07 02:26:00,35.0,28.8,30.29,NNE,17,2.3,0.0,78,0.00,CLR,,0.00,WeatherDisplay:10.37,2013-01-07 08:26:00,
2013-01-07 02:31:00,34.8,28.6,30.29,NNE,17,0.0,0.0,78,0.00,CLR,,0.00,WeatherDisplay:10.37,2013-01-07 08:31:00,
2013-01-07 02:36:00,34.8,29.0,30.29,NNE,17,2.3,0.0,79,0.00,CLR,,0.00,WeatherDisplay:10.37,2013-01-07 08:36:00,
2013-01-07 02:41:00,34.7,28.9,30.29,NNE,17,3.5,3.5,79,0.00,CLR,,0.00,WeatherDisplay:10.37,2013-01-07 08:41:00,
2013-01-07 02:46:00,34.5,28.7,30.28,NNE,17,3.5,3.5,79,0.00,CLR,,0.00,WeatherDisplay:10.37,2013-01-07 08:46:00,
2013-01-07 02:51:00,34.2,28.4,30.29,NNE,17,3.5,3.5,79,0.00,CLR,,0.00,WeatherDisplay:10.37,2013-01-07 08:51:00,
2013-01-07 02:56:00,34.1,28.6,30.29,NNE,17,3.5,3.5,80,0.00,CLR,,0.00,WeatherDisplay:10.37,2013-01-07 08:56:00,
2013-01-07 03:01:00,33.9,28.4,30.29,NNE,17,3.5,3.5,80,0.00,CLR,,0.00,WeatherDisplay:10.37,2013-01-07 09:01:00,
2013-01-07 03:06:00,33.7,28.2,30.30,NNE,17,0.0,0.0,80,0.00,CLR,,0.00,WeatherDisplay:10.37,2013-01-07 09:06:00,
2013-01-07 03:11:00,33.6,28.4,30.29,NNE,17,0.0,0.0,81,0.00,CLR,,0.00,WeatherDisplay:10.37,2013-01-07 09:11:00,
2013-01-07 03:16:00,33.5,28.3,30.30,NNE,17,0.0,0.5,81,0.00,CLR,,0.00,WeatherDisplay:10.37,2013-01-07 09:16:00,
2013-01-07 03:21:00,33.5,28.3,30.29,NNE,17,3.5,3.5,81,0.00,CLR,,0.00,WeatherDisplay:10.37,2013-01-07 09:21:00,
2013-01-07 03:26:00,33.5,28.6,30.29,NNE,17,4.6,4.6,82,0.00,CLR,,0.00,WeatherDisplay:10.37,2013-01-07 09:26:00,
2013-01-07 03:31:00,33.4,28.5,30.29,NNE,17,0.0,0.0,82,0.00,CLR,,0.00,WeatherDisplay:10.37,2013-01-07 09:31:00,
2013-01-07 03:36:00,33.3,28.4,30.28,NNE,17,0.0,0.0,82,0.00,CLR,,0.00,WeatherDisplay:10.37,2013-01-07 09:36:00,
2013-01-07 03:41:00,33.3,28.4,30.28,NNE,17,0.0,0.0,82,0.00,CLR,,0.00,WeatherDisplay:10.37,2013-01-07 09:41:00,
2013-01-07 03:46:00,33.2,28.3,30.28,NNE,17,0.0,0.0,82,0.00,CLR,,0.00,WeatherDisplay:10.37,2013-01-07 09:46:00,
2013-01-07 03:51:00,33.1,28.2,30.28,NNE,17,2.3,2.3,82,0.00,CLR,,0.00,WeatherDisplay:10.37,2013-01-07 09:51:00,
2013-01-07 03:56:00,33.0,28.1,30.28,NNE,17,0.0,0.2,82,0.00,CLR,,0.00,WeatherDisplay:10.37,2013-01-07 09:56:00,
2013-01-07 04:01:00,32.9,28.0,30.27,NNE,17,2.3,2.3,82,0.00,CLR,,0.00,WeatherDisplay:10.37,2013-01-07 10:01:00,
2013-01-07 04:06:00,32.9,28.0,30.27,NNE,17,3.5,3.5,82,0.00,CLR,,0.00,WeatherDisplay:10.37,2013-01-07 10:06:00,
2013-01-07 04:11:00,32.8,27.9,30.26,NNE,17,2.3,2.3,82,0.00,CLR,,0.00,WeatherDisplay:10.37,2013-01-07 10:11:00,
2013-01-07 04:16:00,32.7,27.8,30.26,NNE,17,3.5,3.5,82,0.00,CLR,,0.00,WeatherDisplay:10.37,2013-01-07 10:16:00,
2013-01-07 04:21:00,32.7,27.8,30.25,NNE,17,3.0,3.0,82,0.00,CLR,,0.00,WeatherDisplay:10.37,2013-01-07 10:21:00,
2013-01-07 04:26:00,32.7,27.8,30.25,NNE,17,2.0,2.0,82,0.00,CLR,,0.00,WeatherDisplay:10.37,2013-01-07 10:26:00,
2013-01-07 04:31:00,32.8,28.2,30.25,NNE,17,2.3,2.3,83,0.00,CLR,,0.00,WeatherDisplay:10.37,2013-01-07 10:31:00,
2013-01-07 04:36:00,32.9,28.3,30.26,NNE,17,3.5,3.5,83,0.00,CLR,,0.00,WeatherDisplay:10.37,2013-01-07 10:36:00,
2013-01-07 04:41:00,33.1,28.5,30.27,NNE,17,5.8,5.8,83,0.00,CLR,,0.00,WeatherDisplay:10.37,2013-01-07 10:41:00,
2013-01-07 04:46:00,33.3,28.7,30.26,NNE,16,3.5,3.5,83,0.00,CLR,,0.00,WeatherDisplay:10.37,2013-01-07 10:46:00,
2013-01-07 04:51:00,33.7,28.8,30.26,NNE,16,0.0,0.0,82,0.00,CLR,,0.00,WeatherDisplay:10.37,2013-01-07 10:51:00,
2013-01-07 04:56:00,33.8,28.9,30.27,NNE,15,0.0,0.0,82,0.00,CLR,,0.00,WeatherDisplay:10.37,2013-01-07 10:56:00,
2013-01-07 05:01:00,34.0,29.1,30.26,NNE,16,3.5,3.5,82,0.00,CLR,,0.00,WeatherDisplay:10.37,2013-01-07 11:01:00,
2013-01-07 05:06:00,34.1,28.9,30.26,NNE,15,4.6,4.6,81,0.00,CLR,,0.00,WeatherDisplay:10.37,2013-01-07 11:06:00,
2013-01-07 05:11:00,34.0,28.8,30.26,NNE,15,4.6,4.6,81,0.00,CLR,,0.00,WeatherDisplay:10.37,2013-01-07 11:11:00,
2013-01-07 05:16:00,33.9,28.4,30.26,NNE,15,5.8,5.8,80,0.00,CLR,,0.00,WeatherDisplay:10.37,2013-01-07 11:16:00,
2013-01-07 05:21:00,33.7,28.2,30.26,NNE,15,3.5,3.5,80,0.00,CLR,,0.00,WeatherDisplay:10.37,2013-01-07 11:21:00,
2013-01-07 05:26:00,33.5,28.0,30.26,NNE,14,4.6,4.6,80,0.00,CLR,,0.00,WeatherDisplay:10.37,2013-01-07 11:26:00,
2013-01-07 05:31:00,33.3,28.1,30.26,NNE,15,4.6,4.6,81,0.00,CLR,,0.00,WeatherDisplay:10.37,2013-01-07 11:31:00,
2013-01-07 05:36:00,33.1,27.9,30.26,NNE,15,3.5,3.5,81,0.00,CLR,,0.00,WeatherDisplay:10.37,2013-01-07 11:36:00,
2013-01-07 05:41:00,32.9,27.7,30.26,NNE,15,0.0,0.0,81,0.00,CLR,,0.00,WeatherDisplay:10.37,2013-01-07 11:41:00,
2013-01-07 05:46:00,32.8,27.6,30.26,NNE,14,3.5,3.5,81,0.00,CLR,,0.00,WeatherDisplay:10.37,2013-01-07 11:46:00,
2013-01-07 05:51:00,32.7,27.8,30.26,NNE,15,3.5,3.5,82,0.00,CLR,,0.00,WeatherDisplay:10.37,2013-01-07 11:51:00,
2013-01-07 05:56:00,32.6,27.7,30.26,NNE,15,2.3,2.3,82,0.00,CLR,,0.00,WeatherDisplay:10.37,2013-01-07 11:56:00,
2013-01-07 06:01:00,32.6,27.7,30.25,NNE,15,0.0,0.0,82,0.00,CLR,,0.00,WeatherDisplay:10.37,2013-01-07 12:01:00,
2013-01-07 06:06:00,32.5,27.6,30.26,NNE,15,0.0,0.0,82,0.00,CLR,,0.00,WeatherDisplay:10.37,2013-01-07 12:06:00,
2013-01-07 06:11:00,32.4,27.5,30.26,NNE,14,0.0,0.0,82,0.00,CLR,,0.00,WeatherDisplay:10.37,2013-01-07 12:11:00,
2013-01-07 06:16:00,32.4,27.8,30.26,NNE,14,3.0,3.0,83,0.00,CLR,,0.00,WeatherDisplay:10.37,2013-01-07 12:16:00,
2013-01-07 06:21:00,32.4,27.8,30.26,NNE,15,2.3,2.3,83,0.00,CLR,,0.00,WeatherDisplay:10.37,2013-01-07 12:21:00,
2013-01-07 06:26:00,32.3,27.7,30.26,NNE,15,0.0,0.0,83,0.00,CLR,,0.00,WeatherDisplay:10.37,2013-01-07 12:26:00,
2013-01-07 06:31:00,32.3,27.7,30.26,NNE,15,0.0,0.0,83,0.00,CLR,,0.00,WeatherDisplay:10.37,2013-01-07 12:31:00,
2013-01-07 06:36:00,32.3,27.7,30.25,NNE,15,3.5,3.5,83,0.00,CLR,,0.00,WeatherDisplay:10.37,2013-01-07 12:36:00,
2013-01-07 06:41:00,32.3,27.7,30.25,NNE,14,2.3,2.3,83,0.00,CLR,,0.00,WeatherDisplay:10.37,2013-01-07 12:41:00,
2013-01-07 06:46:00,32.3,27.7,30.25,NNE,15,0.0,0.0,83,0.00,CLR,,0.00,WeatherDisplay:10.37,2013-01-07 12:46:00,
2013-01-07 06:51:00,32.4,27.8,30.25,NNE,15,0.0,0.0,83,0.00,CLR,,0.00,WeatherDisplay:10.37,2013-01-07 12:51:00,
2013-01-07 06:56:00,32.4,27.8,30.25,NNE,15,0.0,0.0,83,0.00,CLR,,0.00,WeatherDisplay:10.37,2013-01-07 12:56:00,
2013-01-07 07:01:00,32.3,27.7,30.25,NNE,14,0.0,0.0,83,0.00,CLR,,0.00,WeatherDisplay:10.37,2013-01-07 13:01:00,
2013-01-07 07:06:00,32.3,27.7,30.25,NNE,14,3.5,3.5,83,0.00,CLR,,0.00,WeatherDisplay:10.37,2013-01-07 13:06:00,
2013-01-07 07:11:00,32.4,27.8,30.25,NNE,15,0.0,0.0,83,0.00,CLR,,0.00,WeatherDisplay:10.37,2013-01-07 13:11:00,
2013-01-07 07:16:00,32.4,27.8,30.26,NNE,15,0.0,0.0,83,0.00,CLR,,0.00,WeatherDisplay:10.37,2013-01-07 13:16:00,
2013-01-07 07:21:00,32.5,27.9,30.26,NNE,15,0.0,0.0,83,0.00,CLR,,0.00,WeatherDisplay:10.37,2013-01-07 13:21:00,
2013-01-07 07:26:00,32.6,28.0,30.26,NNE,15,0.0,0.0,83,0.00,CLR,,0.00,WeatherDisplay:10.37,2013-01-07 13:26:00,
2013-01-07 07:31:00,32.7,28.1,30.26,NNE,15,0.0,0.0,83,0.00,CLR,,0.00,WeatherDisplay:10.37,2013-01-07 13:31:00,
2013-01-07 07:36:00,32.7,28.1,30.25,NNE,15,0.0,0.0,83,0.00,CLR,,0.00,WeatherDisplay:10.37,2013-01-07 13:36:00,
2013-01-07 07:41:00,32.7,28.1,30.26,NNE,14,0.0,0.0,83,0.00,CLR,,0.00,WeatherDisplay:10.37,2013-01-07 13:41:00,
2013-01-07 07:46:00,32.8,28.2,30.26,NNE,15,0.0,0.0,83,0.00,CLR,,0.00,WeatherDisplay:10.37,2013-01-07 13:46:00,
2013-01-07 07:51:00,32.9,28.3,30.26,NNE,15,0.0,0.0,83,0.00,CLR,,0.00,WeatherDisplay:10.37,2013-01-07 13:51:00,
2013-01-07 07:56:00,33.1,28.5,30.26,NNE,15,3.5,3.5,83,0.00,CLR,,0.00,WeatherDisplay:10.37,2013-01-07 13:56:00,
2013-01-07 08:01:00,33.3,28.7,30.26,NNE,14,0.0,0.0,83,0.00,CLR,,0.00,WeatherDisplay:10.37,2013-01-07 14:01:00,
2013-01-07 08:06:00,33.5,28.9,30.26,NNE,15,0.0,0.0,83,0.00,CLR,,0.00,WeatherDisplay:10.37,2013-01-07 14:06:00,
2013-01-07 08:11:00,33.7,29.1,30.26,NNE,15,0.0,0.0,83,0.00,CLR,,0.00,WeatherDisplay:10.37,2013-01-07 14:11:00,
2013-01-07 08:16:00,33.9,29.3,30.26,NNE,14,0.0,0.0,83,0.00,CLR,,0.00,WeatherDisplay:10.37,2013-01-07 14:16:00,
2013-01-07 08:21:00,34.2,29.6,30.26,NNE,14,0.0,0.0,83,0.00,CLR,,0.00,WeatherDisplay:10.37,2013-01-07 14:21:00,
2013-01-07 08:26:00,34.6,30.0,30.27,NNE,15,0.0,0.0,83,0.00,CLR,,0.00,WeatherDisplay:10.37,2013-01-07 14:26:00,
2013-01-07 08:31:00,34.8,30.2,30.26,NNE,15,0.0,0.0,83,0.00,CLR,,0.00,WeatherDisplay:10.37,2013-01-07 14:31:00,
2013-01-07 08:36:00,35.2,30.6,30.26,NNE,15,0.0,0.0,83,0.00,CLR,,0.00,WeatherDisplay:10.37,2013-01-07 14:36:00,
2013-01-07 08:41:00,35.6,30.9,30.27,NNE,15,0.0,0.0,83,0.00,CLR,,0.00,WeatherDisplay:10.37,2013-01-07 14:41:00,
2013-01-07 08:46:00,36.1,31.4,30.27,NNE,15,0.0,0.0,83,0.00,CLR,,0.00,WeatherDisplay:10.37,2013-01-07 14:46:00,
2013-01-07 08:51:00,36.5,31.8,30.27,NNE,15,0.0,0.0,83,0.00,CLR,,0.00,WeatherDisplay:10.37,2013-01-07 14:51:00,
2013-01-07 08:56:00,36.9,31.9,30.28,NNE,14,4.6,4.6,82,0.00,CLR,,0.00,WeatherDisplay:10.37,2013-01-07 14:56:00,
2013-01-07 09:01:00,37.4,32.1,30.28,NNE,14,3.5,3.5,81,0.00,CLR,,0.00,WeatherDisplay:10.37,2013-01-07 15:01:00,
2013-01-07 09:06:00,37.7,32.1,30.28,NNE,15,3.5,3.5,80,0.00,CLR,,0.00,WeatherDisplay:10.37,2013-01-07 15:06:00,
2013-01-07 09:11:00,38.1,32.5,30.28,NNE,14,2.3,2.3,80,0.00,CLR,,0.00,WeatherDisplay:10.37,2013-01-07 15:11:00,
2013-01-07 09:16:00,38.4,32.8,30.28,NNE,15,0.0,0.0,80,0.00,CLR,,0.00,WeatherDisplay:10.37,2013-01-07 15:16:00,
2013-01-07 09:21:00,38.8,33.2,30.28,NNE,15,0.0,0.0,80,0.00,CLR,,0.00,WeatherDisplay:10.37,2013-01-07 15:21:00,
2013-01-07 09:26:00,39.2,33.5,30.28,NNE,14,0.0,0.0,80,0.00,CLR,,0.00,WeatherDisplay:10.37,2013-01-07 15:26:00,
2013-01-07 09:31:00,39.7,34.0,30.28,NNE,14,0.0,0.0,80,0.00,CLR,,0.00,WeatherDisplay:10.37,2013-01-07 15:31:00,
2013-01-07 09:36:00,40.1,34.1,30.28,NNE,14,0.0,0.0,79,0.00,CLR,,0.00,WeatherDisplay:10.37,2013-01-07 15:36:00,
2013-01-07 09:41:00,40.4,34.1,30.28,NNE,15,3.5,3.5,78,0.00,CLR,,0.00,WeatherDisplay:10.37,2013-01-07 15:41:00,
2013-01-07 09:46:00,41.0,34.7,30.28,NNE,15,0.0,0.0,78,0.00,CLR,,0.00,WeatherDisplay:10.37,2013-01-07 15:46:00,
2013-01-07 09:51:00,42.5,35.5,30.28,ENE,67,9.2,9.2,76,0.00,CLR,,0.00,WeatherDisplay:10.37,2013-01-07 15:51:00,
2013-01-07 09:56:00,43.8,35.7,30.28,ENE,69,5.8,5.8,73,0.00,CLR,,0.00,WeatherDisplay:10.37,2013-01-07 15:56:00,
2013-01-07 10:01:00,44.6,35.8,30.28,ENE,76,4.0,4.0,71,0.00,CLR,,0.00,WeatherDisplay:10.37,2013-01-07 16:01:00,
2013-01-07 10:06:00,45.5,36.3,30.28,East,83,4.6,4.6,70,0.00,CLR,,0.00,WeatherDisplay:10.37,2013-01-07 16:06:00,
2013-01-07 10:11:00,46.2,36.6,30.28,East,99,5.8,5.8,69,0.00,CLR,,0.00,WeatherDisplay:10.37,2013-01-07 16:11:00,
2013-01-07 10:16:00,46.7,36.7,30.28,ESE,105,11.5,11.5,68,0.00,CLR,,0.00,WeatherDisplay:10.37,2013-01-07 16:16:00,
2013-01-07 10:21:00,46.7,37.1,30.29,East,96,9.2,9.2,69,0.00,CLR,,0.00,WeatherDisplay:10.37,2013-01-07 16:21:00,
2013-01-07 10:26:00,46.8,37.2,30.28,East,101,5.8,5.8,69,0.00,CLR,,0.00,WeatherDisplay:10.37,2013-01-07 16:26:00,
2013-01-07 10:31:00,46.9,37.3,30.28,East,96,4.6,4.6,69,0.00,CLR,,0.00,WeatherDisplay:10.37,2013-01-07 16:31:00,
2013-01-07 10:36:00,47.0,37.7,30.28,ESE,105,10.4,10.4,70,0.00,CLR,,0.00,WeatherDisplay:10.37,2013-01-07 16:36:00,
2013-01-07 10:41:00,47.1,37.8,30.28,ESE,103,5.8,5.8,70,0.00,CLR,,0.00,WeatherDisplay:10.37,2013-01-07 16:41:00,
2013-01-07 10:46:00,47.3,38.0,30.28,East,88,8.1,8.1,70,0.00,CLR,,0.00,WeatherDisplay:10.37,2013-01-07 16:46:00,
2013-01-07 10:51:00,47.4,38.1,30.27,East,87,4.6,0.0,70,0.00,CLR,,0.00,WeatherDisplay:10.37,2013-01-07 16:51:00,
2013-01-07 10:56:00,47.5,38.6,30.27,East,88,2.3,0.0,71,0.00,CLR,,0.00,WeatherDisplay:10.37,2013-01-07 16:56:00,
2013-01-07 11:01:00,47.7,38.4,30.27,ESE,107,3.5,3.5,70,0.00,CLR,,0.00,WeatherDisplay:10.37,2013-01-07 17:01:00,
2013-01-07 11:06:00,47.7,38.4,30.26,ESE,113,10.4,10.4,70,0.00,CLR,,0.00,WeatherDisplay:10.37,2013-01-07 17:06:00,
2013-01-07 11:11:00,47.8,38.5,30.27,ESE,113,3.5,3.5,70,0.00,CLR,,0.00,WeatherDisplay:10.37,2013-01-07 17:11:00,
2013-01-07 11:16:00,48.0,38.3,30.26,ESE,103,6.9,6.9,69,0.00,CLR,,0.00,WeatherDisplay:10.37,2013-01-07 17:16:00,
2013-01-07 11:21:00,48.1,38.4,30.26,East,98,6.9,6.9,69,0.00,CLR,,0.00,WeatherDisplay:10.37,2013-01-07 17:21:00,
2013-01-07 11:26:00,48.3,38.6,30.25,East,95,3.5,3.5,69,0.00,CLR,,0.00,WeatherDisplay:10.37,2013-01-07 17:26:00,
2013-01-07 11:31:00,48.6,38.5,30.25,East,84,11.5,11.5,68,0.00,CLR,,0.00,WeatherDisplay:10.37,2013-01-07 17:31:00,
2013-01-07 11:36:00,48.8,38.3,30.25,East,96,8.1,8.1,67,0.00,CLR,,0.00,WeatherDisplay:10.37,2013-01-07 17:36:00,
2013-01-07 11:41:00,49.1,38.2,30.24,East,94,6.9,6.9,66,0.00,CLR,,0.00,WeatherDisplay:10.37,2013-01-07 17:41:00,
2013-01-07 11:46:00,49.2,38.3,30.24,East,101,3.5,3.5,66,0.00,CLR,,0.00,WeatherDisplay:10.37,2013-01-07 17:46:00,
2013-01-07 11:51:00,49.5,38.6,30.24,ESE,118,5.8,5.8,66,0.00,CLR,,0.00,WeatherDisplay:10.37,2013-01-07 17:51:00,
2013-01-07 11:56:00,49.9,38.2,30.23,SE,125,9.2,9.2,64,0.00,CLR,,0.00,WeatherDisplay:10.37,2013-01-07 17:56:00,
2013-01-07 12:01:00,49.8,38.1,30.23,ESE,107,8.1,8.1,64,0.00,CLR,,0.00,WeatherDisplay:10.37,2013-01-07 18:01:00,
2013-01-07 12:06:00,49.9,37.8,30.23,ESE,111,5.8,5.8,63,0.00,CLR,,0.00,WeatherDisplay:10.37,2013-01-07 18:06:00,
2013-01-07 12:11:00,50.0,37.9,30.22,ESE,107,6.9,6.9,63,0.00,CLR,,0.00,WeatherDisplay:10.37,2013-01-07 18:11:00,
2013-01-07 12:16:00,50.4,38.3,30.22,SE,127,5.8,5.8,63,0.00,CLR,,0.00,WeatherDisplay:10.37,2013-01-07 18:16:00,
2013-01-07 12:21:00,50.8,38.2,30.21,ESE,118,6.0,6.0,62,0.00,CLR,,0.00,WeatherDisplay:10.37,2013-01-07 18:21:00,
2013-01-07 12:26:00,50.9,37.9,30.21,ESE,110,4.6,4.6,61,0.00,CLR,,0.00,WeatherDisplay:10.37,2013-01-07 18:26:00,
2013-01-07 12:31:00,51.1,38.1,30.20,East,90,8.1,8.1,61,0.00,CLR,,0.00,WeatherDisplay:10.37,2013-01-07 18:31:00,
2013-01-07 12:36:00,51.0,37.6,30.20,East,94,4.6,4.6,60,0.00,CLR,,0.00,WeatherDisplay:10.37,2013-01-07 18:36:00,
2013-01-07 12:41:00,51.1,37.3,30.20,SE,126,5.8,5.8,59,0.00,CLR,,0.00,WeatherDisplay:10.37,2013-01-07 18:41:00,
2013-01-07 12:46:00,51.0,36.7,30.19,ESE,107,10.4,10.4,58,0.00,CLR,,0.00,WeatherDisplay:10.37,2013-01-07 18:46:00,
2013-01-07 12:51:00,51.0,37.2,30.19,East,87,3.5,3.5,59,0.00,CLR,,0.00,WeatherDisplay:10.37,2013-01-07 18:51:00,
2013-01-07 12:56:00,51.2,37.4,30.18,East,95,3.5,3.5,59,0.00,CLR,,0.00,WeatherDisplay:10.37,2013-01-07 18:56:00,
2013-01-07 13:01:00,51.2,36.9,30.17,East,90,3.5,3.5,58,0.00,CLR,,0.00,WeatherDisplay:10.37,2013-01-07 19:01:00,
2013-01-07 13:06:00,51.2,36.5,30.17,East,101,4.6,4.6,57,0.00,CLR,,0.00,WeatherDisplay:10.37,2013-01-07 19:06:00,
2013-01-07 13:11:00,51.1,36.8,30.16,East,95,4.6,4.6,58,0.00,CLR,,0.00,WeatherDisplay:10.37,2013-01-07 19:11:00,
2013-01-07 13:16:00,51.2,36.9,30.16,East,92,3.5,3.5,58,0.00,CLR,,0.00,WeatherDisplay:10.37,2013-01-07 19:16:00,
2013-01-07 13:21:00,51.6,37.7,30.16,East,94,3.5,3.5,59,0.00,CLR,,0.00,WeatherDisplay:10.37,2013-01-07 19:21:00,
2013-01-07 13:26:00,52.1,37.3,30.16,East,96,3.5,3.5,57,0.00,CLR,,0.00,WeatherDisplay:10.37,2013-01-07 19:26:00,
2013-01-07 13:31:00,52.3,37.5,30.16,East,80,3.5,3.5,57,0.00,CLR,,0.00,WeatherDisplay:10.37,2013-01-07 19:31:00,
2013-01-07 13:36:00,52.1,36.4,30.15,East,88,3.5,3.5,55,0.00,CLR,,0.00,WeatherDisplay:10.37,2013-01-07 19:36:00,
2013-01-07 13:41:00,52.0,37.2,30.14,East,92,6.9,6.9,57,0.00,CLR,,0.00,WeatherDisplay:10.37,2013-01-07 19:41:00,
2013-01-07 13:46:00,52.2,37.4,30.14,East,92,0.0,0.0,57,0.00,CLR,,0.00,WeatherDisplay:10.37,2013-01-07 19:46:00,
2013-01-07 13:51:00,52.4,37.2,30.13,East,95,4.6,4.6,56,0.00,CLR,,0.00,WeatherDisplay:10.37,2013-01-07 19:51:00,
2013-01-07 13:56:00,52.4,37.2,30.13,ESE,104,9.2,9.2,56,0.00,CLR,,0.00,WeatherDisplay:10.37,2013-01-07 19:56:00,
2013-01-07 14:01:00,52.3,36.6,30.13,ESE,107,4.6,4.6,55,0.00,CLR,,0.00,WeatherDisplay:10.37,2013-01-07 20:01:00,
2013-01-07 14:06:00,52.3,37.5,30.14,ESE,108,6.9,6.9,57,0.00,CLR,,0.00,WeatherDisplay:10.37,2013-01-07 20:06:00,
2013-01-07 14:11:00,52.2,37.4,30.13,ESE,107,4.6,4.6,57,0.00,CLR,,0.00,WeatherDisplay:10.37,2013-01-07 20:11:00,
2013-01-07 14:16:00,52.3,38.0,30.13,ESE,109,3.5,3.5,58,0.00,CLR,,0.00,WeatherDisplay:10.37,2013-01-07 20:16:00,